Weather History for York, NE

Change the Weather History Date:

Thursday, March 7, 2013

  Actual Average Record
Temperature  
Mean Temperature 38 °F -  
Max Temperature 53 °F 48 °F 76 °F (1987)
Min Temperature 23 °F 24 °F 1 °F (2008)
Degree Days  
Heating Degree Days 27    
Moisture  
Dew Point 25 °F    
Average Humidity 66    
Maximum Humidity 86    
Minimum Humidity 35    
Precipitation  
Precipitation 0.00 in - - ()
Sea Level Pressure  
Sea Level Pressure 30.10 in    
Wind  
Wind Speed 14 mph (SE)    
Max Wind Speed 20 mph    
Max Gust Speed 24 mph    
Visibility 10 miles    
Events      
Averages and records for this station are not official NWS values.
T = Trace of Precipitation, MM = Missing Value Source: NWS Daily Summary

Daily Weather History Graph

Daily Weather History Graph

Search for Another Location

Airport:

Trip Planner

Search our weather history database for the weather conditions in past years. The results will help you decide how hot, cold, wet, or windy it might be!

Date:

Astronomy

Mar. 07, 2013 Rise Set
Actual Time 6:54 AM CST 6:28 PM CST
Civil Twilight 6:27 AM CST 6:56 PM CST
Nautical Twilight 5:55 AM CST 7:27 PM CST
Astronomical Twilight 5:23 AM CST 7:59 PM CST
Moon 3:57 AM CST (3/7) 2:16 PM CST (3/7)
Length of Visible Light 12h 28m
Length of Day
11h 34m
Waning Crescent, 20% of the Moon is Illuminated
Mar 7
Waning Crescent
Mar 11
New
Mar 19
First Quarter
Mar 27
Full
Apr 2
Last Quarter

Hourly Weather History & Observations

Time (CST) Temp. Windchill Dew Point Humidity Pressure Visibility Wind Dir Wind Speed Gust Speed Precip Events Conditions
12:15 AM 28.4 °F 17.5 °F 23.0 °F 80% 30.16 in 10.0 mi SE 13.8 mph - N/A   Clear
12:35 AM 26.6 °F 15.2 °F 23.0 °F 86% 30.15 in 10.0 mi SE 13.8 mph - N/A   Clear
1:15 AM 26.6 °F 15.2 °F 23.0 °F 86% 30.15 in 10.0 mi SE 13.8 mph - N/A   Clear
1:35 AM 26.6 °F 14.7 °F 23.0 °F 86% 30.14 in 10.0 mi SE 15.0 mph - N/A   Clear
1:55 AM 26.6 °F 14.7 °F 23.0 °F 86% 30.15 in 10.0 mi SE 15.0 mph - N/A   Clear
2:15 AM 26.6 °F 16.2 °F 23.0 °F 86% 30.16 in 10.0 mi SE 11.5 mph - N/A   Clear
2:35 AM 26.6 °F 16.2 °F 21.2 °F 80% 30.15 in 10.0 mi SE 11.5 mph - N/A   Clear
2:55 AM 24.8 °F 13.4 °F 21.2 °F 86% 30.15 in 10.0 mi ESE 12.7 mph - N/A   Clear
3:15 AM 24.8 °F 14.0 °F 21.2 °F 86% 30.14 in 10.0 mi ESE 11.5 mph - N/A   Clear
3:35 AM 24.8 °F 13.4 °F 21.2 °F 86% 30.14 in 10.0 mi ESE 12.7 mph - N/A   Clear
3:55 AM 24.8 °F 13.4 °F 21.2 °F 86% 30.13 in 10.0 mi SE 12.7 mph - N/A   Clear
4:15 AM 24.8 °F 12.4 °F 21.2 °F 86% 30.12 in 10.0 mi SE 15.0 mph - N/A   Clear
4:35 AM 24.8 °F 11.9 °F 21.2 °F 86% 30.12 in 10.0 mi SE 16.1 mph - N/A   Clear
4:55 AM 24.8 °F 11.9 °F 19.4 °F 80% 30.12 in 9.0 mi SE 16.1 mph - N/A   Clear
5:15 AM 24.8 °F 12.4 °F 19.4 °F 80% 30.12 in 9.0 mi SE 15.0 mph - N/A   Partly Cloudy
5:35 AM 23.0 °F 10.1 °F 19.4 °F 86% 30.13 in 8.0 mi SE 15.0 mph - N/A   Clear
5:55 AM 23.0 °F 9.6 °F 19.4 °F 86% 30.12 in 8.0 mi SE 16.1 mph 19.6 mph N/A   Clear
6:15 AM 23.0 °F 10.6 °F 19.4 °F 86% 30.13 in 8.0 mi SE 13.8 mph - N/A   Clear
6:35 AM 23.0 °F 9.2 °F 19.4 °F 86% 30.13 in 9.0 mi SE 17.3 mph 21.9 mph N/A   Clear
6:55 AM 23.0 °F 10.1 °F 19.4 °F 86% 30.13 in 7.0 mi SE 15.0 mph - N/A   Clear
7:15 AM 23.0 °F 10.1 °F 19.4 °F 86% 30.12 in 7.0 mi SE 15.0 mph - N/A   Clear
7:35 AM 24.8 °F 12.4 °F 19.4 °F 80% 30.13 in 7.0 mi SE 15.0 mph 20.7 mph N/A   Clear
7:55 AM 24.8 °F 11.9 °F 21.2 °F 86% 30.14 in 7.0 mi SE 16.1 mph 20.7 mph N/A   Clear
8:15 AM 24.8 °F 11.9 °F 21.2 °F 86% 30.15 in 7.0 mi SE 16.1 mph - N/A   Clear
8:35 AM 26.6 °F 14.3 °F 23.0 °F 86% 30.15 in 8.0 mi SE 16.1 mph 20.7 mph N/A   Clear
9:15 AM 28.4 °F 17.0 °F 23.0 °F 80% 30.15 in 10.0 mi SE 15.0 mph - N/A   Clear
9:35 AM 32.0 °F 21.6 °F 23.0 °F 69% 30.15 in 10.0 mi SE 15.0 mph 19.6 mph N/A   Clear
9:55 AM 32.0 °F 22.1 °F 23.0 °F 69% 30.15 in 10.0 mi SE 13.8 mph - N/A   Clear
10:15 AM 32.0 °F 20.8 °F 23.0 °F 69% 30.13 in 10.0 mi SSE 17.3 mph - N/A   Clear
10:35 AM 35.6 °F 24.8 °F 24.8 °F 65% 30.12 in 10.0 mi SE 19.6 mph - N/A   Clear
10:55 AM 37.4 °F 27.5 °F 24.8 °F 60% 30.11 in 10.0 mi SSE 18.4 mph 24.2 mph N/A   Clear
11:15 AM 39.2 °F 30.5 °F 24.8 °F 56% 30.11 in 10.0 mi SE 16.1 mph - N/A   Clear
11:35 AM 41.0 °F 32.5 °F 24.8 °F 53% 30.10 in 10.0 mi SSE 17.3 mph - N/A   Clear
11:55 AM 42.8 °F 34.8 °F 24.8 °F 49% 30.10 in 10.0 mi SSE 17.3 mph 23.0 mph N/A   Clear
12:15 PM 44.6 °F 37.8 °F 24.8 °F 46% 30.09 in 10.0 mi South 15.0 mph 23.0 mph N/A   Clear
12:35 PM 46.4 °F 39.2 °F 24.8 °F 43% 30.08 in 10.0 mi South 18.4 mph - N/A   Clear
12:55 PM 46.4 °F 39.5 °F 26.6 °F 46% 30.08 in 10.0 mi SSE 17.3 mph 23.0 mph N/A   Clear
1:15 PM 48.2 °F - 26.6 °F 43% 30.07 in 10.0 mi SSE 16.1 mph 23.0 mph N/A   Clear
1:35 PM 50.0 °F - 26.6 °F 40% 30.06 in 10.0 mi South 18.4 mph 23.0 mph N/A   Clear
1:55 PM 50.0 °F - 26.6 °F 40% 30.05 in 10.0 mi SSE 15.0 mph 20.7 mph N/A   Clear
2:15 PM 50.0 °F - 26.6 °F 40% 30.05 in 10.0 mi SSE 17.3 mph 20.7 mph N/A   Clear
2:35 PM 53.6 °F - 26.6 °F 35% 30.04 in 10.0 mi South 17.3 mph 21.9 mph N/A   Clear
2:55 PM 53.6 °F - 26.6 °F 35% 30.04 in 10.0 mi SSE 17.3 mph 21.9 mph N/A   Clear
3:15 PM 53.6 °F - 26.6 °F 35% 30.04 in 10.0 mi South 16.1 mph 19.6 mph N/A   Clear
3:35 PM 53.6 °F - 26.6 °F 35% 30.04 in 10.0 mi South 12.7 mph 18.4 mph N/A   Clear
3:55 PM 53.6 °F - 26.6 °F 35% 30.03 in 10.0 mi SSE 13.8 mph - N/A   Clear
4:15 PM 53.6 °F - 26.6 °F 35% 30.04 in 10.0 mi South 11.5 mph - N/A   Clear
4:35 PM 53.6 °F - 26.6 °F 35% 30.03 in 10.0 mi SSE 15.0 mph - N/A   Clear
4:55 PM 53.6 °F - 28.4 °F 38% 30.03 in 10.0 mi SSE 10.4 mph - N/A   Clear
5:15 PM 53.6 °F - 28.4 °F 38% 30.03 in 10.0 mi SSE 11.5 mph - N/A   Clear
5:35 PM 51.8 °F - 28.4 °F 41% 30.03 in 10.0 mi SSE 10.4 mph - N/A   Clear
5:55 PM 51.8 °F - 28.4 °F 41% 30.04 in 10.0 mi SE 9.2 mph - N/A   Clear
7:35 PM 39.2 °F - 26.6 °F 61% 30.07 in 10.0 mi Calm Calm - N/A   Clear
7:55 PM 39.2 °F - 26.6 °F 61% 30.07 in 10.0 mi Calm Calm - N/A   Clear
8:15 PM 41.0 °F 36.4 °F 28.4 °F 61% 30.08 in 10.0 mi SE 6.9 mph - N/A   Clear
8:35 PM 41.0 °F 35.2 °F 28.4 °F 61% 30.08 in 10.0 mi SE 9.2 mph - N/A   Clear
8:55 PM 39.2 °F - 28.4 °F 65% 30.08 in 10.0 mi Calm Calm - N/A   Clear
9:15 PM 39.2 °F - 28.4 °F 65% 30.09 in 10.0 mi Calm Calm - N/A   Clear
9:35 PM 37.4 °F - 28.4 °F 70% 30.09 in 10.0 mi Calm Calm - N/A   Clear
9:55 PM 39.2 °F 33.6 °F 28.4 °F 65% 30.09 in 10.0 mi SE 8.1 mph - N/A   Clear
10:15 PM 37.4 °F 31.4 °F 28.4 °F 70% 30.10 in 10.0 mi ESE 8.1 mph - N/A   Clear
10:35 PM 35.6 °F 29.2 °F 28.4 °F 75% 30.10 in 10.0 mi ESE 8.1 mph - N/A   Clear
10:55 PM 35.6 °F 27.5 °F 28.4 °F 75% 30.11 in 10.0 mi SE 11.5 mph - N/A   Clear
11:15 PM 37.4 °F 28.9 °F 28.4 °F 70% 30.11 in 10.0 mi SE 13.8 mph - N/A   Clear
11:35 PM 35.6 °F 27.1 °F 28.4 °F 75% 30.11 in 10.0 mi SE 12.7 mph - N/A   Clear
11:55 PM 33.8 °F 27.0 °F 28.4 °F 81% 30.11 in 10.0 mi ESE 8.1 mph - N/A   Clear